Wind_Speed
22 19 18 15 12 10 2 3 6 11 14 13 14 13 14 17 15 13 13 11 7 8 7 7 6 7 7 8 8 8 8 9 10 11 11 12 12 11 11 11 11 11 11 11 11 12 12 12 11
24 22 20 18 16 10 4 8 9 13 15 13 13 12 14 15 11 11 10 9 6 7 6 6 6 6 6 6 6 6 6 7 8 9 10 10 10 10 10 10 10 10 10 10 11 12 12 12 12
26 24 23 22 20 12 6 6 8 11 12 12 11 11 12 10 9 8 8 7 6 6 5 5 5 5 5 5 5 5 5 6 7 7 8 8 8 9 9 9 9 9 10 11 12 12 12 12 12
28 27 26 25 23 14 8 9 10 8 10 10 9 9 9 8 7 7 7 7 6 6 6 5 5 4 4 4 3 3 4 5 5 5 6 6 7 7 7 8 8 9 10 10 11 11 11 11 11
29 29 29 28 27 18 11 12 14 11 11 9 9 10 8 6 6 7 7 7 6 6 6 5 5 4 3 3 2 2 2 2 3 4 5 5 6 6 6 7 8 8 9 10 11 11 11 11 11
30 30 30 28 24 17 12 14 17 15 12 10 9 12 8 5 6 7 7 6 6 6 6 5 5 4 3 2 2 1 0 1 2 3 4 5 5 6 6 7 8 9 10 11 11 12 12 12 12
28 29 29 26 22 17 14 16 18 16 13 12 10 12 9 6 6 7 7 7 6 6 6 5 5 4 3 3 2 1 1 2 3 4 5 5 6 6 7 8 8 9 10 11 12 12 13 13 13
25 28 28 27 24 21 17 18 20 18 14 14 12 13 11 7 7 7 7 7 7 6 5 4 3 3 2 2 2 2 2 3 4 5 6 6 7 7 8 9 9 10 11 12 12 13 13 13 12
23 26 25 25 22 18 15 18 19 17 18 16 14 18 18 11 9 8 7 6 6 5 3 2 2 2 2 3 4 5 5 6 6 7 7 8 8 9 9 10 10 11 12 13 13 14 14 13 13
20 19 18 21 19 16 16 18 17 18 18 15 15 19 14 10 10 9 8 6 5 3 1 0 1 3 4 5 6 7 7 8 9 9 9 9 10 10 11 12 12 13 13 14 14 15 15 15 14
17 16 18 20 19 21 19 20 21 21 18 17 18 19 13 10 12 11 10 8 6 4 3 3 4 5 7 8 9 9 10 11 11 11 12 12 12 13 13 14 15 16 16 16 16 17 17 17 17
19 18 20 21 22 25 26 24 22 22 20 19 20 21 17 14 13 12 11 9 7 6 6 6 7 8 9 10 11 12 12 13 13 13 14 15 15 16 17 17 18 20 20 19 19 20 20 20 20
20 19 20 21 21 22 26 27 26 24 23 23 24 24 20 14 14 14 12 11 9 8 9 9 11 12 13 13 14 15 15 15 15 17 18 19 19 20 21 22 24 25 25 25 24 23 23 23 24
22 21 20 19 18 18 21 25 26 25 24 23 21 18 15 16 15 15 15 12 10 10 11 12 13 14 16 17 17 18 18 18 18 20 22 23 24 25 26 27 28 29 29 28 27 26 26 27 28
24 23 21 17 15 15 17 21 23 22 22 22 18 16 18 18 16 16 16 14 13 12 12 13 15 16 18 19 20 20 20 21 22 23 25 26 28 28 28 30 29 30 30 31 31 31 29 30 31
25 24 21 16 15 15 17 18 19 20 22 22 20 20 22 21 18 18 17 17 17 15 14 15 16 17 19 21 22 23 23 23 25 26 27 29 31 31 30 30 29 30 31 31 32 33 32 33 34
24 22 20 17 15 15 16 16 15 17 21 22 21 23 24 23 19 20 21 20 18 16 15 16 18 19 21 23 24 26 26 26 27 29 30 31 32 31 30 31 31 32 32 32 31 31 32 33 34
20 18 17 16 16 16 15 16 16 18 21 23 23 22 21 20 21 22 24 22 20 16 16 18 21 22 23 25 27 28 28 28 30 31 32 33 33 32 32 32 32 32 31 31 30 29 31 33 34
20 15 15 13 16 19 18 20 20 19 20 22 22 21 22 22 22 23 24 24 22 19 19 21 24 25 27 28 29 30 30 31 32 33 35 34 35 34 33 32 32 31 31 31 30 28 29 31 32
27 23 20 17 18 23 23 23 24 21 20 23 25 24 25 26 27 27 27 27 26 24 23 24 26 28 30 32 32 32 33 33 34 35 36 37 36 35 34 33 32 31 30 31 30 29 29 29 29
30 28 23 20 21 27 29 27 27 26 24 27 29 28 30 31 31 30 30 29 29 29 28 28 29 31 33 34 34 35 36 36 36 37 38 39 38 37 35 34 33 32 31 30 30 30 30 29 28
31 30 28 26 25 25 28 28 27 27 28 30 31 33 35 33 31 32 32 32 34 34 34 32 33 34 35 35 36 37 38 38 39 40 40 40 39 37 37 36 34 33 31 31 31 31 31 31 31
28 27 27 29 31 31 29 27 23 23 27 30 33 37 36 33 33 34 36 36 36 36 37 36 36 36 36 37 37 38 39 40 41 42 42 41 39 39 38 37 36 35 34 33 33 33 33 34 35
26 24 24 28 32 35 32 29 24 24 28 34 38 39 37 35 34 35 36 37 38 39 39 39 38 37 37 38 39 40 41 42 43 43 43 42 41 40 40 38 38 37 37 36 36 36 36 37 38
26 26 24 25 29 31 26 28 28 30 33 36 38 40 40 40 39 38 38 38 39 39 39 39 37 37 37 38 40 41 41 42 43 43 43 42 42 41 41 40 39 40 40 39 39 39 39 40 42
25 25 25 20 16 15 17 22 27 33 37 38 40 42 43 44 43 42 40 38 37 37 37 36 36 37 37 38 39 40 41 42 43 43 43 43 43 42 42 42 42 42 41 41 42 42 43 43 44
23 23 22 22 21 19 15 22 32 34 35 37 40 43 45 46 46 43 40 37 35 34 34 35 35 36 37 38 39 41 42 42 43 44 44 44 44 44 44 45 45 45 45 45 45 45 45 46 47
21 19 19 25 24 22 17 20 28 31 32 32 34 38 41 42 41 39 36 34 33 33 34 34 35 36 37 38 40 41 42 43 44 45 46 46 47 47 47 48 49 49 48 49 48 48 48 49 50
18 21 22 22 23 22 20 24 27 28 30 31 33 33 33 32 33 33 33 33 33 33 34 35 36 37 38 39 41 42 43 44 46 46 48 49 50 51 51 52 53 52 52 52 52 52 51 52 53
18 20 21 24 24 24 23 27 30 30 32 32 31 29 28 29 30 31 32 32 33 34 34 35 37 38 40 41 42 44 45 46 48 49 50 51 52 53 54 55 55 55 55 55 54 54 54 55 55
Wind_Direction
218 215 216 209 191 171 104 289 250 264 262 261 262 269 269 263 265 267 265 265 256 247 244 242 239 235 231 230 231 234 237 241 245 246 246 246 248 249 249 251 252 254 255 255 256 258 260 261 262
219 218 217 211 195 172 240 243 242 254 266 274 276 272 266 268 265 258 253 248 234 234 231 235 236 234 229 228 230 233 237 242 245 247 247 246 247 248 250 252 254 256 259 260 262 264 265 267 268
220 220 218 212 199 186 228 240 237 257 270 275 279 282 277 274 256 245 236 228 213 214 212 217 221 220 220 226 232 236 242 250 253 253 250 250 251 253 255 257 260 262 265 267 270 272 273 274 273
221 220 219 214 202 188 236 267 264 257 265 272 275 278 280 265 248 230 218 211 199 196 195 195 198 200 205 217 228 241 253 260 264 265 264 262 263 264 266 268 270 272 273 276 278 280 281 279 277
222 221 220 215 206 196 216 252 264 257 257 264 273 265 262 258 237 214 204 195 184 183 183 183 184 182 186 197 209 227 253 269 280 286 285 283 280 278 277 276 277 278 278 279 280 281 280 279 276
220 219 218 216 210 209 226 249 259 249 250 251 257 265 267 243 226 207 193 180 168 162 165 164 158 152 153 157 154 144 288 309 310 311 308 304 301 296 290 285 281 280 280 279 279 278 277 276 274
218 217 217 214 210 211 227 243 248 243 241 244 245 263 257 232 221 204 188 175 162 155 155 152 141 129 125 123 110 75 21 348 332 326 320 313 307 302 295 288 283 280 279 277 276 276 275 274 274
216 217 215 211 210 210 214 237 243 233 227 235 229 245 233 203 207 197 184 173 163 157 152 140 126 112 96 72 35 10 2 354 342 335 329 324 316 308 300 292 287 283 280 277 275 274 274 274 272
213 216 213 209 209 215 218 237 238 229 222 225 225 234 233 202 199 199 190 180 170 161 147 122 95 66 44 28 15 6 358 351 345 338 333 329 324 317 310 303 299 294 289 286 283 280 277 273 270
214 214 207 202 200 216 225 234 227 229 224 223 235 243 240 207 206 211 209 204 197 189 176 350 359 2 0 355 352 350 347 343 340 335 332 327 323 321 317 313 310 306 300 295 289 284 279 274 269
216 211 204 199 204 209 210 224 218 218 216 216 229 245 242 229 228 229 229 230 235 243 268 300 320 331 336 338 337 337 338 337 336 333 332 331 328 325 322 317 314 310 304 297 290 285 280 276 272
219 216 216 210 211 215 204 209 214 215 207 208 219 234 228 229 238 240 242 244 253 269 285 302 316 325 332 335 335 335 335 335 336 334 332 332 330 326 325 323 316 311 305 295 289 283 279 276 271
222 223 225 226 224 221 212 208 207 205 208 214 212 221 223 225 242 249 252 252 259 277 292 304 313 321 328 332 333 336 335 334 336 336 335 332 331 330 327 323 317 311 304 297 290 285 281 277 271
224 228 231 234 235 231 220 212 208 202 206 220 219 215 226 232 237 247 248 249 263 279 293 302 311 321 327 330 331 331 330 331 334 335 334 331 329 330 329 325 319 314 307 300 292 285 281 276 272
225 229 233 237 235 228 219 209 203 200 209 224 222 223 234 235 240 247 256 260 268 276 289 300 309 319 323 325 325 325 326 328 329 331 331 329 327 327 328 328 322 318 312 303 294 288 283 277 274
227 231 235 237 234 224 216 206 199 204 213 224 225 226 233 234 241 251 253 258 266 274 285 295 304 312 316 317 317 318 320 323 324 327 329 328 327 327 328 329 325 323 319 310 300 293 288 281 276
227 232 236 239 240 227 215 196 188 211 221 224 225 232 236 235 238 250 254 256 259 273 285 292 297 304 308 309 310 311 315 318 319 320 322 322 323 328 329 326 323 322 322 319 309 300 293 287 281
225 235 239 237 243 237 214 186 177 211 224 227 227 232 244 242 238 244 255 263 264 272 282 289 293 297 300 301 303 304 308 310 312 313 315 318 320 322 324 324 324 323 322 323 319 309 302 295 290
200 224 238 235 235 244 225 196 186 206 222 225 229 230 236 244 245 244 245 257 265 273 279 286 290 293 294 294 295 297 300 302 304 307 309 313 316 317 318 323 323 322 320 319 319 314 308 303 297
205 207 210 215 220 237 235 213 200 207 223 226 224 226 228 231 235 243 248 256 264 270 274 281 285 288 288 288 289 291 293 295 297 300 304 306 308 310 313 315 317 319 318 318 317 315 313 309 305
214 213 202 203 217 234 236 228 214 213 222 231 231 229 231 234 241 249 254 259 268 272 275 277 280 283 283 284 285 287 287 289 291 294 297 299 301 304 306 309 311 312 313 315 316 314 312 311 308
220 218 208 201 211 231 245 243 231 224 227 235 240 240 241 243 247 252 257 261 268 270 272 275 279 280 280 280 282 283 284 285 287 290 292 294 296 299 301 305 306 306 307 309 310 310 308 308 307
223 221 222 215 216 222 234 243 240 240 241 242 243 246 248 251 253 254 257 261 265 269 273 275 278 278 277 277 277 279 281 282 284 286 288 290 293 295 297 299 300 302 302 304 304 305 305 304 303
223 220 225 228 229 233 233 237 240 236 240 243 246 250 254 256 258 260 262 263 266 269 273 276 277 276 275 275 276 277 278 279 281 283 285 288 290 292 293 294 296 297 298 300 301 301 301 300 300
223 219 223 232 236 243 247 245 241 236 237 240 246 251 256 259 263 265 266 267 267 269 271 273 274 274 273 273 275 276 277 279 281 283 284 286 289 290 290 291 293 294 295 296 298 298 299 298 297
229 225 221 225 243 261 264 256 245 241 240 242 245 250 255 260 265 267 268 268 268 268 268 269 270 271 272 272 274 275 277 279 281 283 284 287 288 288 289 289 290 292 293 295 296 296 296 295 295
222 230 224 222 220 234 242 240 239 242 245 247 249 252 255 259 263 266 267 267 266 266 266 266 267 268 269 271 272 274 277 279 281 283 285 286 287 287 287 288 290 292 293 294 295 294 294 293 292
218 225 226 224 225 229 232 242 249 249 250 254 256 256 258 259 260 262 263 263 264 264 264 264 265 266 268 269 271 274 276 278 280 282 284 284 285 285 286 288 290 291 292 293 293 293 293 291 291
223 222 223 230 230 234 242 247 254 252 251 251 253 256 257 257 257 258 259 260 261 262 262 264 264 266 267 269 272 273 275 277 279 281 283 284 285 286 287 288 289 291 291 292 292 292 292 291 291
224 227 227 229 231 228 237 256 255 257 258 256 253 254 254 254 255 256 257 258 260 261 262 264 265 266 268 270 272 273 275 277 279 281 282 283 285 286 287 288 288 289 290 291 292 292 292 292 291
Height
5886 5889 5891 5895 5899 5901 5903 5906 5906 5903 5900 5899 5899 5899 5897 5895 5896 5898 5895 5894 5895 5895 5895 5895 5896 5897 5898 5898 5899 5899 5900 5900 5900 5901 5901 5901 5901 5901 5901 5901 5902 5902 5902 5902 5902 5902 5902 5902 5902
5884 5887 5890 5893 5896 5898 5901 5903 5903 5900 5899 5898 5898 5898 5895 5893 5894 5894 5893 5893 5894 5894 5894 5895 5895 5896 5897 5897 5898 5898 5899 5899 5899 5900 5900 5900 5900 5900 5900 5900 5900 5901 5901 5900 5900 5900 5900 5900 5900
5880 5883 5886 5890 5893 5894 5897 5899 5899 5899 5899 5899 5897 5896 5894 5893 5893 5893 5892 5892 5893 5893 5893 5894 5895 5895 5896 5896 5897 5897 5898 5898 5899 5899 5899 5899 5899 5899 5899 5899 5899 5899 5899 5899 5899 5898 5898 5898 5898
5876 5880 5883 5887 5890 5892 5896 5898 5898 5898 5898 5897 5896 5895 5893 5893 5892 5892 5892 5892 5892 5893 5893 5894 5894 5895 5895 5896 5896 5897 5897 5898 5898 5898 5899 5899 5899 5899 5899 5899 5898 5898 5898 5897 5897 5897 5896 5896 5896
5871 5875 5878 5881 5885 5889 5893 5897 5896 5897 5897 5896 5895 5893 5891 5892 5892 5892 5891 5892 5892 5893 5893 5894 5894 5894 5895 5895 5896 5896 5897 5897 5897 5898 5898 5898 5898 5898 5897 5897 5897 5897 5896 5895 5895 5894 5894 5894 5894
5866 5870 5873 5877 5883 5888 5892 5895 5896 5896 5896 5896 5895 5892 5890 5891 5892 5892 5891 5892 5892 5893 5893 5894 5894 5894 5894 5895 5895 5896 5896 5896 5896 5896 5896 5896 5896 5896 5896 5895 5895 5895 5894 5893 5893 5892 5892 5892 5891
5863 5866 5869 5874 5879 5885 5891 5894 5894 5894 5895 5895 5893 5892 5891 5890 5891 5892 5892 5892 5892 5893 5894 5894 5894 5894 5895 5895 5895 5896 5896 5896 5896 5895 5895 5895 5895 5894 5894 5893 5893 5892 5892 5891 5890 5889 5889 5889 5889
5859 5863 5865 5870 5875 5880 5886 5890 5890 5891 5893 5893 5892 5890 5886 5889 5891 5892 5892 5892 5892 5893 5894 5894 5894 5895 5895 5895 5896 5896 5896 5895 5895 5895 5894 5894 5893 5893 5892 5892 5891 5891 5890 5889 5888 5887 5886 5886 5886
5855 5859 5862 5867 5872 5878 5883 5886 5887 5888 5890 5890 5889 5887 5886 5889 5890 5892 5892 5892 5893 5893 5894 5894 5895 5895 5895 5895 5895 5895 5895 5895 5894 5894 5894 5893 5892 5892 5891 5890 5890 5889 5888 5887 5886 5885 5885 5884 5883
5853 5857 5861 5865 5869 5876 5881 5883 5885 5886 5887 5889 5886 5883 5886 5888 5890 5892 5892 5892 5892 5893 5894 5894 5894 5895 5895 5895 5895 5895 5894 5894 5894 5893 5893 5892 5892 5891 5890 5889 5888 5887 5886 5885 5884 5884 5883 5882 5881
5851 5855 5858 5861 5866 5870 5875 5879 5882 5883 5886 5888 5886 5883 5884 5886 5890 5891 5891 5892 5892 5892 5893 5894 5894 5894 5894 5894 5894 5894 5893 5893 5893 5892 5891 5891 5890 5890 5888 5887 5886 5885 5884 5883 5882 5881 5880 5879 5879
5849 5852 5855 5857 5861 5864 5868 5872 5877 5879 5882 5884 5884 5883 5883 5886 5889 5890 5890 5890 5891 5891 5892 5892 5893 5893 5893 5893 5893 5892 5892 5891 5891 5890 5889 5889 5888 5887 5886 5885 5883 5882 5881 5879 5879 5878 5877 5876 5876
5846 5849 5852 5854 5856 5859 5862 5866 5870 5874 5878 5879 5878 5878 5881 5884 5887 5888 5888 5888 5889 5890 5891 5891 5891 5891 5891 5891 5891 5890 5890 5889 5889 5888 5887 5886 5885 5884 5883 5881 5879 5878 5876 5875 5874 5873 5873 5872 5870
5843 5846 5849 5851 5853 5855 5858 5862 5866 5870 5874 5874 5873 5874 5878 5881 5883 5885 5885 5885 5887 5889 5889 5889 5889 5889 5889 5889 5888 5888 5887 5887 5886 5886 5884 5882 5881 5880 5879 5877 5875 5873 5871 5870 5869 5868 5868 5867 5866
5839 5842 5846 5848 5851 5853 5856 5859 5863 5869 5872 5873 5873 5876 5879 5878 5879 5882 5882 5882 5885 5886 5887 5887 5887 5887 5887 5886 5886 5885 5884 5884 5883 5883 5881 5879 5878 5876 5874 5872 5870 5867 5865 5864 5862 5861 5861 5860 5859
5835 5839 5843 5846 5848 5850 5854 5857 5862 5867 5870 5872 5874 5876 5877 5875 5877 5879 5879 5880 5882 5884 5885 5884 5884 5885 5885 5884 5883 5882 5882 5881 5880 5879 5878 5876 5874 5872 5870 5868 5865 5862 5859 5857 5855 5853 5853 5853 5852
5831 5835 5840 5843 5845 5848 5851 5855 5861 5866 5868 5870 5872 5873 5872 5872 5875 5875 5874 5876 5876 5880 5882 5882 5881 5881 5882 5881 5880 5879 5879 5878 5877 5875 5874 5872 5870 5868 5866 5863 5861 5858 5854 5851 5849 5847 5846 5845 5845
5829 5833 5837 5840 5844 5846 5849 5854 5858 5864 5866 5868 5870 5870 5868 5868 5871 5873 5872 5871 5872 5875 5878 5878 5877 5877 5878 5877 5876 5875 5875 5874 5872 5871 5869 5867 5866 5864 5862 5858 5855 5853 5850 5847 5843 5841 5839 5838 5837
5824 5831 5835 5840 5843 5844 5847 5851 5855 5860 5863 5865 5866 5867 5868 5868 5866 5866 5867 5867 5868 5870 5873 5874 5874 5873 5873 5872 5872 5871 5870 5869 5868 5866 5864 5862 5860 5859 5856 5854 5851 5848 5845 5842 5839 5836 5833 5831 5830
5819 5824 5832 5839 5842 5842 5844 5848 5852 5855 5859 5860 5861 5862 5862 5862 5861 5861 5863 5863 5862 5865 5868 5869 5869 5868 5867 5866 5866 5865 5864 5863 5862 5860 5859 5857 5855 5854 5851 5849 5847 5844 5840 5837 5834 5830 5828 5825 5823
5815 5820 5826 5834 5838 5837 5839 5842 5846 5851 5853 5855 5856 5856 5856 5855 5857 5858 5858 5859 5859 5860 5862 5864 5864 5863 5861 5860 5860 5859 5858 5857 5856 5855 5853 5851 5850 5847 5845 5843 5841 5838 5835 5832 5828 5825 5822 5820 5817
5810 5815 5820 5825 5831 5833 5834 5837 5841 5845 5848 5848 5849 5850 5849 5852 5854 5854 5853 5854 5854 5855 5855 5857 5857 5856 5855 5854 5853 5852 5851 5850 5849 5848 5846 5844 5842 5841 5839 5836 5834 5832 5829 5826 5823 5820 5817 5814 5811
5805 5810 5815 5819 5822 5826 5829 5831 5836 5840 5841 5841 5841 5841 5843 5847 5848 5849 5850 5850 5850 5849 5848 5849 5849 5848 5847 5846 5845 5844 5843 5842 5841 5840 5838 5837 5835 5833 5831 5829 5827 5825 5822 5819 5816 5813 5810 5807 5804
5801 5806 5810 5813 5816 5819 5823 5826 5831 5834 5834 5832 5832 5834 5838 5840 5841 5842 5843 5844 5844 5843 5842 5841 5841 5840 5839 5838 5837 5836 5835 5834 5833 5831 5830 5828 5827 5825 5823 5821 5819 5816 5814 5811 5808 5805 5802 5799 5795
5797 5801 5806 5808 5811 5814 5818 5820 5824 5823 5825 5825 5827 5829 5831 5832 5834 5835 5835 5835 5835 5835 5834 5833 5832 5832 5831 5830 5829 5827 5826 5825 5824 5822 5821 5820 5818 5817 5815 5813 5810 5808 5805 5802 5799 5795 5792 5789 5786
5792 5797 5802 5806 5811 5814 5815 5815 5816 5816 5817 5819 5821 5822 5824 5825 5825 5826 5826 5826 5826 5826 5826 5825 5824 5823 5823 5822 5821 5819 5818 5817 5815 5813 5812 5811 5809 5807 5805 5803 5800 5798 5795 5792 5788 5785 5782 5778 5775
5789 5792 5797 5801 5804 5806 5809 5809 5806 5807 5810 5813 5815 5815 5816 5816 5817 5817 5817 5817 5817 5817 5817 5817 5816 5816 5815 5814 5813 5812 5810 5808 5807 5804 5803 5801 5799 5797 5795 5792 5790 5787 5784 5780 5777 5774 5770 5766 5762
5785 5789 5792 5795 5798 5800 5805 5804 5801 5801 5803 5805 5806 5806 5806 5807 5807 5807 5808 5808 5808 5809 5809 5808 5808 5808 5807 5806 5805 5804 5802 5800 5798 5796 5793 5791 5789 5787 5784 5781 5778 5775 5772 5768 5765 5761 5758 5754 5750
5781 5784 5787 5791 5794 5797 5800 5799 5791 5792 5793 5795 5796 5796 5796 5797 5798 5798 5799 5799 5800 5800 5800 5800 5800 5799 5798 5797 5796 5794 5792 5790 5788 5786 5783 5781 5778 5775 5772 5769 5765 5762 5759 5755 5751 5748 5744 5740 5736
5776 5779 5782 5785 5787 5789 5792 5792 5786 5787 5786 5785 5785 5786 5787 5789 5789 5790 5791 5791 5791 5791 5791 5791 5791 5790 5789 5788 5786 5784 5782 5780 5778 5775 5772 5769 5766 5763 5759 5756 5752 5749 5745 5742 5738 5734 5730 5725 5721